Regional Weather Roundup
Issued by NWS Upton, NY

Current Version | Previous Version | Text Only | Print | Product List | Glossary On
Versions: 1 2 3 4 5 6 7 8 9 10 11 12 13 14 15 16 17 18 19 20 21 22 23 24 25 26
000
ASUS41 KOKX 231705
RWROKX

REGIONAL WEATHER ROUNDUP
NATIONAL WEATHER SERVICE NEW YORK NY
100 PM EDT WED APR 23 2014

NOTE: "FAIR" INDICATES FEW OR NO CLOUDS BELOW 12,000 FEET WITH NO
SIGNIFICANT WEATHER AND/OR OBSTRUCTIONS TO VISIBILITY.

NYZ071-072-176-178-NJZ106-104-231800-
NEW YORK CITY METRO AREA


CITY           SKY/WX    TMP DP  RH WIND       PRES   REMARKS
CENTRAL PARK   CLOUDY    56  34  43 NW8G24    29.61F
LAGUARDIA APRT PTSUNNY   54  35  48 NW24G32   29.58F
KENNEDY INTL   PTSUNNY   58  35  42 NW26G36   29.58F
NEWARK/LIBERTY PTSUNNY   57  35  43 NW26G39   29.60F
TETERBORO      CLOUDY    57  36  45 NW22G35   29.58F
$$

NYZ177-179-078>081-231800-
LONG ISLAND NEW YORK

CITY           SKY/WX    TMP DP  RH WIND       PRES   REMARKS
FARMINGDALE    PTSUNNY   56  37  49 NW14G30   29.56F
ISLIP          CLOUDY    56  37  49 NW18G31   29.53
SHIRLEY        CLOUDY    54  37  52 NW23G29   29.55
WESTHAMPTON    CLOUDY    55  37  50 NW16G28   29.54R
MONTAUK POINT    N/A     52  42  69 NW8       29.51S
$$

NYZ052-065-067-231800-
HUDSON VALLEY

CITY           SKY/WX    TMP DP  RH WIND       PRES   REMARKS
WHITE PLAINS   CLOUDY    54  36  50 NW21G28   29.56
NEWBURGH       PTSUNNY   52  39  62 NW20G35   29.61R
MONTGOMERY     CLOUDY    54  36  50 N17G29    29.61R
POUGHKEEPSIE   CLOUDY    53  40  61 NW8G20    29.59R
ALBANY         CLOUDY    51  41  68 NW16      29.60F
$$

NJZ001-105-106-008-010-013-015-019>022-104-231800-
NEW JERSEY

CITY           SKY/WX    TMP DP  RH WIND       PRES   REMARKS
NEWARK/LIBERTY PTSUNNY   57  35  43 NW26G39   29.60F
TETERBORO      CLOUDY    57  36  45 NW22G35   29.58F
CALDWELL       CLOUDY    53  35  50 NW14G23   29.61F
MORRISTOWN     CLOUDY    54  36  50 NW10G20   29.63S
SOMERVILLE     CLOUDY    55  35  47 NW15G24   29.63S
LINDEN         CLOUDY    58  37  45 NW17G40   29.63S
SUSSEX         CLOUDY    53  35  50 N15G28    29.65S
ANDOVER          N/A     51  36  56 N13G22    29.64S
TRENTON        CLOUDY    56  35  45 NW20G32   29.64F
MILLVILLE      PTSUNNY   57  35  43 NW24G36   29.70F
ATLANTIC CITY  PTSUNNY   58  34  40 W24G37    29.65F
WRIGHTSTOWN    CLOUDY    56  35  45 NW20G28   29.63F
TOMS RIVER     PTSUNNY   57  36  44 NW14G28   29.62F
BELMAR         MOSUNNY   57  34  41 NW25G35   29.60F
$$

PAZ047>061-062-071-231800-
EASTERN PENNSYLVANIA

CITY           SKY/WX    TMP DP  RH WIND       PRES   REMARKS
PHILADELPHIA   PTSUNNY   57  32  38 NW25G35   29.70F
ALLENTOWN      CLOUDY    54  35  48 NW21G30   29.70S
SCRANTON       CLOUDY    46  35  65 NW21G28   29.73S
$$

CTZ002-004>006-009-010-012-RIZ004-006-007-MAZ004-011-015-231800-
SOUTHERN NEW ENGLAND
 IN CT

CITY           SKY/WX    TMP DP  RH WIND       PRES   REMARKS
BRADLEY INTL   LGT RAIN  49  41  74 NW13      29.53S
HARTFORD       LGT RAIN  47  43  86 W7        29.54F
DANBURY        CLOUDY    49  38  65 NW14G23   29.58S
WTRBRY/OXFORD  CLOUDY    46  36  66 N17G29    29.58
BRIDGEPORT     CLOUDY    54  38  54 NW17G31   29.55R
MERIDEN        CLOUDY    47  40  76 NW12G18   29.56R
NEW HAVEN      CLOUDY    52  38  58 NW15G26   29.55R
CHESTER        RAIN      46  39  76 NW17G28   29.53R
GROTON         MOSUNNY   52  46  80 NW21G39   29.48F
WILLIMANTIC    LGT RAIN  47  41  80 NW10      29.51S

 IN RI

CITY           SKY/WX    TMP DP  RH WIND       PRES   REMARKS
PROVIDENCE     RAIN      48  45  89 W9        29.47R
BLOCK ISLAND   PTSUNNY   48  45  87 NW10G17   29.47S
WESTERLY       CLOUDY    53  43  68 NW17G29   29.48F

 IN MA

CITY           SKY/WX    TMP DP  RH WIND       PRES   REMARKS
BOSTON         LGT RAIN  51  44  77 NW17G28   29.44R
WORCESTER      LGT RAIN  45  43  93 NW14      29.47S
WESTFIELD      LGT RAIN  49  41  74 NW14G22   29.53S
PROVINCETOWN   CLOUDY    48  46  93 MISG      29.39S
NANTUCKET      CLOUDY    48  45  89 SW10      29.39F FOG
$$

ANZ330-335-338-340-345-350-353-355-231800-
COASTAL MARINE OBSERVATIONS


STATION/POSITION TIME  SKY/WX   TEMP    WIND        PRES    VSBY  WAVE
                                AIR SEA DIR/SP/G                  HT/PER
                 (UTC)          (F)     (DEG/KT/KT) (MB)    (MI)  (FT/S)
NY HARB ENTRANCE 1700            49 46  VRB 16/ 19  1001.6
4S FIRE IS       1600               46                N/A           4/ 4
23SW MTP         1700            48 43  290/ 16/ 17  998.6          4/11
HUDSON CANYON    1600            47 44  290/ 14/ 17 1001.4          6/ 6
EXECUTION ROCKS  1700            52 46  320/ 16/ 23   N/A
WESTERN LI SOUND 1700            51     310/ 16/ 21   N/A           1/ 3
CENTRAL LI SOUND 1700            47 43  330/ 16/ 19   N/A           2/ 3
EASTERN LI SOUND NOT AVBL
ROBBINS REEF     1700            53     320/ 23/ 33   N/A
$$


>>>>>>>>>>>>>>>>>>>>>>>>>>>> KEY <<<<<<<<<<<<<<<<<<<<<<<<<<<
>                                                          <
>     SKY/WX - SKY CONDITION/PRESENT WEATHER               <
>     TMP    - TEMPERATURE IN FAHRENHEIT                   <
>     DP     - DEWPOINT IN FAHRENHEIT                      <
>     RH     - RELATIVE HUMIDITY IN PERCENT                <
>     WIND   - DIRECTION AND SPEED IN MPH                  <
>     PRES   - MEAN SEA LEVEL PRESSURE IN INCHES OF HG     <
>     WCI    - WIND CHILL INDEX                            <
>     VSB    - VISIBILITY IN MILES                         <
>     HX     - HEAT INDEX                                  <
>     TC     - TEMPERATURE IN CELSIUS                      <
>     VRB    - VARIABLE WIND DIRECTION                     <
>                                                          <
>>>>>>>>>>>>>>>>>>>>>>>>>>>> KEY <<<<<<<<<<<<<<<<<<<<<<<<<<<





USA.gov is the U.S. government's official web portal to all federal, state and local government web resources and services.